Time,TemperatureF,DewpointF,PressureIn,WindDirection,WindDirectionDegrees,WindSpeedMPH,WindSpeedGustMPH,Humidity,HourlyPrecipIn,Conditions,Clouds,dailyrainin,SoftwareType,DateUTC
2013-03-07 00:57:00,24.6,17.5,29.57,NNE,23,0.0,0.0,74,0.00,,,0.00,WUHU21623XXSP,2013-03-07 06:57:00,
2013-03-07 01:57:00,24.4,17.3,29.58,NNE,23,0.0,0.0,74,0.00,,,0.00,WUHU21623XXSP,2013-03-07 07:57:00,
2013-03-07 02:57:00,24.4,17.3,29.58,NE,45,0.0,0.0,74,0.00,,,0.00,WUHU21623XXSP,2013-03-07 08:57:00,
2013-03-07 03:57:00,24.1,17.4,29.57,NE,45,0.0,0.0,75,0.00,,,0.00,WUHU21623XXSP,2013-03-07 09:57:00,
2013-03-07 04:57:00,24.1,17.4,29.57,SE,135,0.0,0.0,75,0.00,,,0.00,WUHU21623XXSP,2013-03-07 10:57:00,
2013-03-07 05:45:00,23.7,16.9,29.58,SE,135,0.0,0.0,75,0.00,,,0.00,WUHU21623XXSP,2013-03-07 11:45:00,
2013-03-07 05:50:00,23.7,16.9,29.58,SE,135,1.6,1.6,75,0.00,,,0.00,WUHU21623XXSP,2013-03-07 11:50:00,
2013-03-07 05:55:00,23.7,16.9,29.58,SE,135,0.0,1.6,75,0.00,,,0.00,WUHU21623XXSP,2013-03-07 11:55:00,
2013-03-07 06:00:00,23.7,16.9,29.59,SE,135,0.0,0.0,75,0.00,,,0.00,WUHU21623XXSP,2013-03-07 12:00:00,
2013-03-07 06:05:00,23.7,16.9,29.59,SE,135,0.0,0.0,75,0.00,,,0.00,WUHU21623XXSP,2013-03-07 12:05:00,
2013-03-07 06:10:00,23.7,16.9,29.59,SSE,157,0.0,0.0,75,0.00,,,0.00,WUHU21623XXSP,2013-03-07 12:10:00,
2013-03-07 06:15:00,23.7,16.9,29.59,SSE,157,0.0,0.0,75,0.00,,,0.00,WUHU21623XXSP,2013-03-07 12:15:00,
2013-03-07 06:20:00,23.7,16.9,29.60,SSE,157,0.0,0.0,75,0.00,,,0.00,WUHU21623XXSP,2013-03-07 12:20:00,
2013-03-07 06:25:00,23.5,16.8,29.60,SSE,157,0.0,0.0,75,0.00,,,0.00,WUHU21623XXSP,2013-03-07 12:25:00,
2013-03-07 06:30:00,23.7,16.9,29.60,SSE,157,0.0,0.0,75,0.00,,,0.00,WUHU21623XXSP,2013-03-07 12:30:00,
2013-03-07 06:35:00,23.7,16.9,29.60,SSE,157,0.0,0.0,75,0.00,,,0.00,WUHU21623XXSP,2013-03-07 12:35:00,
2013-03-07 06:40:00,23.7,17.2,29.60,SSE,157,0.0,0.0,76,0.00,,,0.00,WUHU21623XXSP,2013-03-07 12:40:00,
2013-03-07 06:45:00,23.5,17.1,29.60,SSE,157,0.0,0.0,76,0.00,,,0.00,WUHU21623XXSP,2013-03-07 12:45:00,
2013-03-07 06:50:00,23.7,17.2,29.60,SSE,157,0.0,0.0,76,0.00,,,0.00,WUHU21623XXSP,2013-03-07 12:50:00,
2013-03-07 06:55:00,23.7,17.2,29.60,SSE,157,0.0,0.0,76,0.00,,,0.00,WUHU21623XXSP,2013-03-07 12:55:00,
2013-03-07 07:00:00,23.9,17.4,29.60,SSE,157,0.0,0.0,76,0.00,,,0.00,WUHU21623XXSP,2013-03-07 13:00:00,
2013-03-07 07:05:00,23.9,17.4,29.60,SSE,157,0.0,0.0,76,0.00,,,0.00,WUHU21623XXSP,2013-03-07 13:05:00,
2013-03-07 07:10:00,24.3,17.8,29.61,SSE,157,0.0,0.0,76,0.00,,,0.00,WUHU21623XXSP,2013-03-07 13:10:00,
2013-03-07 07:15:00,24.4,17.8,29.61,SSE,157,0.0,0.0,76,0.00,,,0.00,WUHU21623XXSP,2013-03-07 13:15:00,
2013-03-07 07:20:00,24.4,17.9,29.61,SE,135,1.3,1.3,76,0.00,,,0.00,WUHU21623XXSP,2013-03-07 13:20:00,
2013-03-07 07:25:00,24.6,18.1,29.61,SE,135,2.2,4.5,76,0.00,,,0.00,WUHU21623XXSP,2013-03-07 13:25:00,
2013-03-07 07:30:00,24.6,18.1,29.61,SSE,157,0.0,4.5,76,0.00,,,0.00,WUHU21623XXSP,2013-03-07 13:30:00,
2013-03-07 07:35:00,25.0,18.4,29.62,SSW,202,2.0,2.2,76,0.00,,,0.00,WUHU21623XXSP,2013-03-07 13:35:00,
2013-03-07 07:40:00,25.2,18.6,29.62,South,180,0.0,2.0,76,0.00,,,0.00,WUHU21623XXSP,2013-03-07 13:40:00,
2013-03-07 07:46:00,25.3,18.8,29.62,South,180,0.0,0.0,76,0.00,,,0.00,WUHU21623XXSP,2013-03-07 13:46:00,
2013-03-07 07:51:00,25.5,18.8,29.62,South,180,0.0,0.0,76,0.00,,,0.00,WUHU21623XXSP,2013-03-07 13:51:00,
2013-03-07 07:56:00,25.9,19.3,29.62,SSE,157,2.0,4.5,76,0.00,,,0.00,WUHU21623XXSP,2013-03-07 13:56:00,
2013-03-07 08:01:00,25.9,19.3,29.62,SSE,157,0.0,4.5,76,0.00,,,0.00,WUHU21623XXSP,2013-03-07 14:01:00,
2013-03-07 08:06:00,26.2,19.6,29.61,SE,135,2.2,2.2,76,0.00,,,0.00,WUHU21623XXSP,2013-03-07 14:06:00,
2013-03-07 08:11:00,26.4,19.8,29.62,SSW,202,0.0,2.2,76,0.00,,,0.00,WUHU21623XXSP,2013-03-07 14:11:00,
2013-03-07 08:16:00,26.8,20.2,29.61,SSE,157,0.0,3.8,76,0.00,,,0.00,WUHU21623XXSP,2013-03-07 14:16:00,
2013-03-07 08:21:00,27.1,20.2,29.62,SSE,157,0.0,3.8,75,0.00,,,0.00,WUHU21623XXSP,2013-03-07 14:21:00,
2013-03-07 08:26:00,27.7,20.8,29.62,South,180,0.0,0.0,75,0.00,,,0.00,WUHU21623XXSP,2013-03-07 14:26:00,
2013-03-07 08:31:00,28.0,21.1,29.62,South,180,0.0,0.0,75,0.00,,,0.00,WUHU21623XXSP,2013-03-07 14:31:00,
2013-03-07 08:36:00,28.6,21.5,29.62,SW,225,1.8,1.8,75,0.00,,,0.00,WUHU21623XXSP,2013-03-07 14:36:00,
2013-03-07 08:41:00,28.9,21.7,29.62,SW,225,0.0,1.8,74,0.00,,,0.00,WUHU21623XXSP,2013-03-07 14:41:00,
2013-03-07 08:46:00,29.3,22.0,29.62,SW,225,1.1,1.1,74,0.00,,,0.00,WUHU21623XXSP,2013-03-07 14:46:00,
2013-03-07 08:51:00,30.0,22.4,29.62,SW,225,2.2,2.2,73,0.00,,,0.00,WUHU21623XXSP,2013-03-07 14:51:00,
2013-03-07 08:56:00,30.0,22.4,29.62,SW,225,4.9,4.9,73,0.00,,,0.00,WUHU21623XXSP,2013-03-07 14:56:00,
2013-03-07 09:01:00,30.6,22.9,29.62,SW,225,0.0,4.9,73,0.00,,,0.00,WUHU21623XXSP,2013-03-07 15:01:00,
2013-03-07 09:06:00,30.9,22.9,29.62,SW,225,0.0,0.0,72,0.00,,,0.00,WUHU21623XXSP,2013-03-07 15:06:00,
2013-03-07 09:11:00,31.6,23.3,29.63,SW,225,0.0,0.0,72,0.00,,,0.00,WUHU21623XXSP,2013-03-07 15:11:00,
2013-03-07 09:16:00,31.8,23.5,29.63,SSW,202,0.0,0.9,71,0.00,,,0.00,WUHU21623XXSP,2013-03-07 15:16:00,
2013-03-07 09:21:00,32.2,23.8,29.63,SSW,202,2.7,3.6,71,0.00,,,0.00,WUHU21623XXSP,2013-03-07 15:21:00,
2013-03-07 09:26:00,32.7,24.0,29.63,SSW,202,0.0,3.6,70,0.00,,,0.00,WUHU21623XXSP,2013-03-07 15:26:00,
2013-03-07 09:31:00,33.1,24.3,29.63,SSW,202,0.0,5.1,70,0.00,,,0.00,WUHU21623XXSP,2013-03-07 15:31:00,
2013-03-07 09:36:00,33.6,24.5,29.62,South,180,0.0,5.1,69,0.00,,,0.00,WUHU21623XXSP,2013-03-07 15:36:00,
2013-03-07 09:41:00,34.0,24.1,29.62,SE,135,5.8,5.8,69,0.00,,,0.00,WUHU21623XXSP,2013-03-07 15:41:00,
2013-03-07 09:46:00,34.3,24.8,29.62,SE,135,0.0,5.8,68,0.00,,,0.00,WUHU21623XXSP,2013-03-07 15:46:00,
2013-03-07 09:51:00,34.3,24.8,29.62,SSE,157,3.6,3.6,68,0.00,,,0.00,WUHU21623XXSP,2013-03-07 15:51:00,
2013-03-07 09:56:00,34.9,25.0,29.62,SE,135,9.6,9.6,67,0.00,,,0.00,WUHU21623XXSP,2013-03-07 15:56:00,
2013-03-07 10:01:00,34.9,25.0,29.62,SSW,202,6.9,9.6,67,0.00,,,0.00,WUHU21623XXSP,2013-03-07 16:01:00,
2013-03-07 10:06:00,34.9,24.6,29.62,SSW,202,4.3,7.6,66,0.00,,,0.00,WUHU21623XXSP,2013-03-07 16:06:00,
2013-03-07 10:11:00,35.2,24.6,29.62,SSW,202,4.3,6.9,66,0.00,,,0.00,WUHU21623XXSP,2013-03-07 16:11:00,
2013-03-07 10:16:00,35.2,25.0,29.62,SE,135,0.9,4.3,66,0.00,,,0.00,WUHU21623XXSP,2013-03-07 16:16:00,
2013-03-07 10:21:00,35.4,25.2,29.62,SSW,202,1.1,1.1,66,0.00,,,0.00,WUHU21623XXSP,2013-03-07 16:21:00,
2013-03-07 10:26:00,35.8,25.2,29.62,South,180,0.7,1.1,65,0.00,,,0.00,WUHU21623XXSP,2013-03-07 16:26:00,
2013-03-07 10:31:00,36.1,25.5,29.62,SSE,157,0.0,0.7,65,0.00,,,0.00,WUHU21623XXSP,2013-03-07 16:31:00,
2013-03-07 10:36:00,36.3,25.7,29.63,SSW,202,1.8,2.5,65,0.00,,,0.00,WUHU21623XXSP,2013-03-07 16:36:00,
2013-03-07 10:41:00,36.5,25.7,29.62,South,180,2.7,2.7,65,0.00,,,0.00,WUHU21623XXSP,2013-03-07 16:41:00,
2013-03-07 10:46:00,36.5,25.5,29.62,South,180,0.0,3.8,64,0.00,,,0.00,WUHU21623XXSP,2013-03-07 16:46:00,
2013-03-07 10:51:00,36.5,25.5,29.62,SSW,202,5.4,5.4,64,0.00,,,0.00,WUHU21623XXSP,2013-03-07 16:51:00,
2013-03-07 10:56:00,36.5,25.5,29.62,SSW,202,5.4,5.4,64,0.00,,,0.00,WUHU21623XXSP,2013-03-07 16:56:00,
2013-03-07 11:01:00,36.5,25.5,29.62,SW,225,4.7,5.4,64,0.00,,,0.00,WUHU21623XXSP,2013-03-07 17:01:00,
2013-03-07 11:06:00,36.7,25.6,29.62,SSE,157,2.9,7.2,64,0.00,,,0.00,WUHU21623XXSP,2013-03-07 17:06:00,
2013-03-07 11:11:00,37.0,26.0,29.62,South,180,0.0,7.2,64,0.00,,,0.00,WUHU21623XXSP,2013-03-07 17:11:00,
2013-03-07 11:16:00,37.2,25.8,29.62,SE,135,1.1,4.5,63,0.00,,,0.00,WUHU21623XXSP,2013-03-07 17:16:00,
2013-03-07 11:21:00,38.1,26.6,29.62,SSE,157,0.9,1.6,63,0.00,,,0.00,WUHU21623XXSP,2013-03-07 17:21:00,
2013-03-07 11:26:00,38.5,26.7,29.61,South,180,5.6,5.6,63,0.00,,,0.00,WUHU21623XXSP,2013-03-07 17:26:00,
2013-03-07 11:32:00,38.5,26.5,29.61,South,180,0.0,6.0,62,0.00,,,0.00,WUHU21623XXSP,2013-03-07 17:32:00,
2013-03-07 11:37:00,39.0,26.9,29.62,ESE,112,0.0,6.0,61,0.00,,,0.00,WUHU21623XXSP,2013-03-07 17:37:00,
2013-03-07 11:42:00,39.4,27.0,29.62,SSW,202,3.8,3.8,61,0.00,,,0.00,WUHU21623XXSP,2013-03-07 17:42:00,
2013-03-07 11:47:00,39.9,27.5,29.62,SSE,157,2.0,3.8,61,0.00,,,0.00,WUHU21623XXSP,2013-03-07 17:47:00,
2013-03-07 11:51:00,40.1,27.3,29.62,SSE,157,0.0,4.7,60,0.00,,,0.00,WUHU21623XXSP,2013-03-07 17:51:00,
2013-03-07 11:57:00,40.6,27.9,29.61,South,180,7.4,7.4,60,0.00,,,0.00,WUHU21623XXSP,2013-03-07 17:57:00,
2013-03-07 12:02:00,40.8,27.6,29.61,SSE,157,1.3,7.4,59,0.00,,,0.00,WUHU21623XXSP,2013-03-07 18:02:00,
2013-03-07 12:07:00,40.8,27.1,29.61,SE,135,3.6,7.4,58,0.00,,,0.00,WUHU21623XXSP,2013-03-07 18:07:00,
2013-03-07 12:12:00,40.8,27.1,29.61,South,180,1.8,3.6,58,0.00,,,0.00,WUHU21623XXSP,2013-03-07 18:12:00,
2013-03-07 12:17:00,41.2,27.5,29.61,SW,225,2.0,4.5,58,0.00,,,0.00,WUHU21623XXSP,2013-03-07 18:17:00,
2013-03-07 12:21:00,41.2,27.5,29.60,SE,135,7.4,7.4,58,0.00,,,0.00,WUHU21623XXSP,2013-03-07 18:21:00,
2013-03-07 12:27:00,41.5,27.8,29.60,SSE,157,5.1,7.4,58,0.00,,,0.00,WUHU21623XXSP,2013-03-07 18:27:00,
2013-03-07 12:32:00,42.1,28.1,29.60,SSE,157,0.0,7.4,57,0.00,,,0.00,WUHU21623XXSP,2013-03-07 18:32:00,
2013-03-07 12:37:00,42.1,27.9,29.60,SE,135,0.9,5.8,57,0.00,,,0.00,WUHU21623XXSP,2013-03-07 18:37:00,
2013-03-07 12:42:00,42.4,28.2,29.60,SSE,157,6.9,6.9,57,0.00,,,0.00,WUHU21623XXSP,2013-03-07 18:42:00,
2013-03-07 12:47:00,42.6,28.4,29.60,SW,225,3.4,6.9,56,0.00,,,0.00,WUHU21623XXSP,2013-03-07 18:47:00,
2013-03-07 12:52:00,43.0,28.3,29.60,SSE,157,5.6,5.6,56,0.00,,,0.00,WUHU21623XXSP,2013-03-07 18:52:00,
2013-03-07 12:57:00,43.2,28.5,29.60,South,180,1.3,5.6,56,0.00,,,0.00,WUHU21623XXSP,2013-03-07 18:57:00,
2013-03-07 13:02:00,43.0,28.3,29.59,SSW,202,0.0,5.6,56,0.00,,,0.00,WUHU21623XXSP,2013-03-07 19:02:00,
2013-03-07 13:07:00,42.6,27.7,29.59,SE,135,0.0,1.3,55,0.00,,,0.00,WUHU21623XXSP,2013-03-07 19:07:00,
2013-03-07 13:12:00,42.6,27.9,29.59,SE,135,0.0,0.0,56,0.00,,,0.00,WUHU21623XXSP,2013-03-07 19:12:00,
2013-03-07 13:17:00,42.6,27.9,29.59,SSW,202,5.1,6.7,56,0.00,,,0.00,WUHU21623XXSP,2013-03-07 19:17:00,
2013-03-07 13:22:00,42.4,27.8,29.59,SSW,202,0.0,6.7,56,0.00,,,0.00,WUHU21623XXSP,2013-03-07 19:22:00,
2013-03-07 13:27:00,42.6,27.9,29.59,SSE,157,6.9,6.9,56,0.00,,,0.00,WUHU21623XXSP,2013-03-07 19:27:00,
2013-03-07 13:32:00,43.0,28.3,29.59,WSW,247,3.1,6.9,56,0.00,,,0.00,WUHU21623XXSP,2013-03-07 19:32:00,
2013-03-07 13:37:00,43.3,28.6,29.59,SW,225,5.4,5.4,56,0.00,,,0.00,WUHU21623XXSP,2013-03-07 19:37:00,
2013-03-07 13:42:00,43.5,28.8,29.59,SW,225,2.0,5.4,56,0.00,,,0.00,WUHU21623XXSP,2013-03-07 19:42:00,
2013-03-07 13:47:00,43.5,28.4,29.59,SW,225,0.0,5.4,55,0.00,,,0.00,WUHU21623XXSP,2013-03-07 19:47:00,
2013-03-07 13:52:00,43.5,28.4,29.59,SSW,202,0.0,0.0,55,0.00,,,0.00,WUHU21623XXSP,2013-03-07 19:52:00,
2013-03-07 13:57:00,43.5,28.4,29.59,SSW,202,2.5,2.5,55,0.00,,,0.00,WUHU21623XXSP,2013-03-07 19:57:00,
2013-03-07 14:02:00,43.3,28.2,29.58,South,180,0.0,2.7,55,0.00,,,0.00,WUHU21623XXSP,2013-03-07 20:02:00,
2013-03-07 14:07:00,43.2,28.0,29.58,SSW,202,1.8,1.8,55,0.00,,,0.00,WUHU21623XXSP,2013-03-07 20:07:00,
2013-03-07 14:12:00,43.0,27.8,29.58,SE,135,0.0,3.6,55,0.00,,,0.00,WUHU21623XXSP,2013-03-07 20:12:00,
2013-03-07 14:17:00,42.6,27.5,29.58,SSW,202,2.2,3.6,55,0.00,,,0.00,WUHU21623XXSP,2013-03-07 20:17:00,
2013-03-07 14:22:00,42.4,27.3,29.57,SSE,157,0.0,2.2,55,0.00,,,0.00,WUHU21623XXSP,2013-03-07 20:22:00,
2013-03-07 14:27:00,42.1,27.0,29.57,SE,135,0.0,0.0,55,0.00,,,0.00,WUHU21623XXSP,2013-03-07 20:27:00,
2013-03-07 14:32:00,42.1,27.0,29.58,SE,135,1.3,1.3,55,0.00,,,0.00,WUHU21623XXSP,2013-03-07 20:32:00,
2013-03-07 14:37:00,41.9,27.0,29.58,SE,135,0.0,1.3,55,0.00,,,0.00,WUHU21623XXSP,2013-03-07 20:37:00,
2013-03-07 14:42:00,41.5,26.9,29.57,ESE,112,0.0,0.0,56,0.00,,,0.00,WUHU21623XXSP,2013-03-07 20:42:00,
2013-03-07 14:47:00,41.4,26.3,29.57,ESE,112,0.0,0.0,55,0.00,,,0.00,WUHU21623XXSP,2013-03-07 20:47:00,
2013-03-07 14:52:00,41.0,26.6,29.57,ESE,112,0.0,0.0,56,0.00,,,0.00,WUHU21623XXSP,2013-03-07 20:52:00,
2013-03-07 14:57:00,40.3,26.1,29.57,SE,135,0.0,0.0,56,0.00,,,0.00,WUHU21623XXSP,2013-03-07 20:57:00,
2013-03-07 15:02:00,39.9,25.4,29.57,SE,135,7.2,7.2,56,0.00,,,0.00,WUHU21623XXSP,2013-03-07 21:02:00,
2013-03-07 15:07:00,39.9,25.4,29.57,ESE,112,1.6,7.2,56,0.00,,,0.00,WUHU21623XXSP,2013-03-07 21:07:00,
2013-03-07 15:12:00,39.6,25.5,29.56,SSE,157,0.2,1.6,57,0.00,,,0.00,WUHU21623XXSP,2013-03-07 21:12:00,
2013-03-07 15:17:00,39.6,25.9,29.57,SE,135,0.0,1.6,58,0.00,,,0.00,WUHU21623XXSP,2013-03-07 21:17:00,
2013-03-07 15:22:00,39.6,25.9,29.57,SE,135,1.3,4.5,58,0.00,,,0.00,WUHU21623XXSP,2013-03-07 21:22:00,
2013-03-07 15:27:00,39.6,25.9,29.56,SE,135,4.9,4.9,58,0.00,,,0.00,WUHU21623XXSP,2013-03-07 21:27:00,
2013-03-07 15:32:00,39.6,25.9,29.57,ESE,112,0.0,4.9,58,0.00,,,0.00,WUHU21623XXSP,2013-03-07 21:32:00,
2013-03-07 15:37:00,39.4,25.7,29.57,SE,135,4.5,4.9,58,0.00,,,0.00,WUHU21623XXSP,2013-03-07 21:37:00,
2013-03-07 15:43:00,39.4,25.7,29.57,SE,135,0.0,4.5,58,0.00,,,0.00,WUHU21623XXSP,2013-03-07 21:43:00,
2013-03-07 15:48:00,39.0,25.4,29.57,SE,135,6.5,6.5,58,0.00,,,0.00,WUHU21623XXSP,2013-03-07 21:48:00,
2013-03-07 15:53:00,38.8,25.7,29.56,SE,135,7.8,7.8,59,0.00,,,0.00,WUHU21623XXSP,2013-03-07 21:53:00,
2013-03-07 15:58:00,38.8,25.7,29.57,SE,135,4.5,7.8,59,0.00,,,0.00,WUHU21623XXSP,2013-03-07 21:58:00,
2013-03-07 16:03:00,38.8,25.7,29.57,SE,135,0.0,5.1,59,0.00,,,0.00,WUHU21623XXSP,2013-03-07 22:03:00,
2013-03-07 16:08:00,38.8,25.7,29.56,SE,135,3.1,5.1,59,0.00,,,0.00,WUHU21623XXSP,2013-03-07 22:08:00,
2013-03-07 16:13:00,38.8,25.7,29.56,SE,135,3.6,3.6,59,0.00,,,0.00,WUHU21623XXSP,2013-03-07 22:13:00,
2013-03-07 16:18:00,38.8,25.7,29.56,SE,135,2.7,3.6,59,0.00,,,0.00,WUHU21623XXSP,2013-03-07 22:18:00,
2013-03-07 16:23:00,38.8,25.7,29.56,SE,135,0.0,2.7,59,0.00,,,0.00,WUHU21623XXSP,2013-03-07 22:23:00,
2013-03-07 16:28:00,38.7,25.5,29.56,SE,135,6.9,6.9,59,0.00,,,0.00,WUHU21623XXSP,2013-03-07 22:28:00,
2013-03-07 16:33:00,38.5,25.3,29.56,SE,135,3.8,6.9,59,0.00,,,0.00,WUHU21623XXSP,2013-03-07 22:33:00,
2013-03-07 16:38:00,38.1,25.0,29.56,SE,135,3.8,6.3,59,0.00,,,0.00,WUHU21623XXSP,2013-03-07 22:38:00,
2013-03-07 16:43:00,37.9,24.9,29.56,SE,135,4.5,6.3,59,0.00,,,0.00,WUHU21623XXSP,2013-03-07 22:43:00,
2013-03-07 16:48:00,37.8,25.1,29.56,SE,135,5.6,5.6,60,0.00,,,0.00,WUHU21623XXSP,2013-03-07 22:48:00,
2013-03-07 16:53:00,37.6,25.0,29.56,SE,135,1.3,7.6,60,0.00,,,0.00,WUHU21623XXSP,2013-03-07 22:53:00,
2013-03-07 16:58:00,37.4,24.8,29.56,SSE,157,3.1,7.6,60,0.00,,,0.00,WUHU21623XXSP,2013-03-07 22:58:00,
2013-03-07 17:03:00,37.2,24.6,29.56,SE,135,0.0,3.1,60,0.00,,,0.00,WUHU21623XXSP,2013-03-07 23:03:00,
2013-03-07 17:08:00,36.7,24.5,29.56,SSE,157,0.0,0.0,60,0.00,,,0.00,WUHU21623XXSP,2013-03-07 23:08:00,
2013-03-07 17:13:00,36.5,24.0,29.56,SE,135,3.1,3.1,60,0.00,,,0.00,WUHU21623XXSP,2013-03-07 23:13:00,
2013-03-07 17:18:00,36.1,24.0,29.56,SSE,157,2.7,5.6,61,0.00,,,0.00,WUHU21623XXSP,2013-03-07 23:18:00,
2013-03-07 17:23:00,35.8,23.7,29.56,SE,135,0.0,5.6,61,0.00,,,0.00,WUHU21623XXSP,2013-03-07 23:23:00,
2013-03-07 17:28:00,35.4,23.4,29.56,SE,135,0.0,2.7,61,0.00,,,0.00,WUHU21623XXSP,2013-03-07 23:28:00,
2013-03-07 17:33:00,35.2,23.2,29.56,SE,135,0.0,0.0,61,0.00,,,0.00,WUHU21623XXSP,2013-03-07 23:33:00,
2013-03-07 17:38:00,34.9,23.2,29.56,SE,135,0.0,2.0,62,0.00,,,0.00,WUHU21623XXSP,2013-03-07 23:38:00,
2013-03-07 17:43:00,34.3,22.6,29.57,SE,135,0.0,2.0,62,0.00,,,0.00,WUHU21623XXSP,2013-03-07 23:43:00,
2013-03-07 17:48:00,34.3,22.6,29.56,NE,45,0.0,0.0,62,0.00,,,0.00,WUHU21623XXSP,2013-03-07 23:48:00,
2013-03-07 17:53:00,33.6,22.3,29.57,SE,135,0.0,0.0,63,0.00,,,0.00,WUHU21623XXSP,2013-03-07 23:53:00,
2013-03-07 17:58:00,33.3,22.3,29.57,NE,45,0.0,0.0,63,0.00,,,0.00,WUHU21623XXSP,2013-03-07 23:58:00,
2013-03-07 18:03:00,32.7,21.5,29.57,SE,135,0.0,1.1,63,0.00,,,0.00,WUHU21623XXSP,2013-03-08 00:03:00,
2013-03-07 18:08:00,32.2,21.4,29.56,SE,135,1.8,5.8,64,0.00,,,0.00,WUHU21623XXSP,2013-03-08 00:08:00,
2013-03-07 18:13:00,32.0,21.2,29.56,ESE,112,0.0,5.8,65,0.00,,,0.00,WUHU21623XXSP,2013-03-08 00:13:00,
2013-03-07 18:18:00,31.8,21.4,29.56,ESE,112,0.7,0.7,65,0.00,,,0.00,WUHU21623XXSP,2013-03-08 00:18:00,
2013-03-07 18:23:00,31.3,21.2,29.56,SE,135,0.0,0.7,65,0.00,,,0.00,WUHU21623XXSP,2013-03-08 00:23:00,
2013-03-07 18:28:00,31.1,21.0,29.56,East,90,0.0,0.7,66,0.00,,,0.00,WUHU21623XXSP,2013-03-08 00:28:00,
2013-03-07 18:33:00,30.9,20.8,29.56,ENE,67,0.0,0.0,66,0.00,,,0.00,WUHU21623XXSP,2013-03-08 00:33:00,
2013-03-07 18:38:00,30.6,20.7,29.56,ENE,67,0.0,1.8,66,0.00,,,0.00,WUHU21623XXSP,2013-03-08 00:38:00,
2013-03-07 18:43:00,30.4,20.7,29.56,ENE,67,0.0,1.8,67,0.00,,,0.00,WUHU21623XXSP,2013-03-08 00:43:00,
2013-03-07 18:48:00,30.2,20.5,29.56,ENE,67,0.0,0.0,67,0.00,,,0.00,WUHU21623XXSP,2013-03-08 00:48:00,
2013-03-07 18:53:00,30.0,20.3,29.57,ENE,67,0.0,0.0,67,0.00,,,0.00,WUHU21623XXSP,2013-03-08 00:53:00,
2013-03-07 18:58:00,29.8,20.5,29.57,NE,45,0.0,0.0,68,0.00,,,0.00,WUHU21623XXSP,2013-03-08 00:58:00,
2013-03-07 19:03:00,29.7,20.4,29.57,ESE,112,0.0,0.0,68,0.00,,,0.00,WUHU21623XXSP,2013-03-08 01:03:00,
2013-03-07 19:08:00,29.5,20.2,29.58,SE,135,0.0,0.0,68,0.00,,,0.00,WUHU21623XXSP,2013-03-08 01:08:00,
2013-03-07 19:13:00,29.3,20.0,29.57,ESE,112,0.0,0.0,68,0.00,,,0.00,WUHU21623XXSP,2013-03-08 01:13:00,
2013-03-07 19:18:00,29.1,20.2,29.57,ESE,112,0.0,0.0,69,0.00,,,0.00,WUHU21623XXSP,2013-03-08 01:18:00,
2013-03-07 19:23:00,29.1,20.2,29.57,ESE,112,0.0,0.0,69,0.00,,,0.00,WUHU21623XXSP,2013-03-08 01:23:00,
2013-03-07 19:28:00,28.9,20.2,29.57,ESE,112,0.0,0.0,69,0.00,,,0.00,WUHU21623XXSP,2013-03-08 01:28:00,
2013-03-07 19:33:00,28.9,20.4,29.57,ESE,112,0.0,0.0,70,0.00,,,0.00,WUHU21623XXSP,2013-03-08 01:33:00,
2013-03-07 19:38:00,28.8,20.3,29.57,ESE,112,0.0,3.8,70,0.00,,,0.00,WUHU21623XXSP,2013-03-08 01:38:00,
2013-03-07 19:43:00,28.6,20.1,29.56,SE,135,3.8,3.8,70,0.00,,,0.00,WUHU21623XXSP,2013-03-08 01:43:00,
2013-03-07 19:48:00,28.6,20.1,29.57,SE,135,0.0,3.8,70,0.00,,,0.00,WUHU21623XXSP,2013-03-08 01:48:00,
2013-03-07 19:53:00,28.6,20.1,29.57,ESE,112,0.0,0.0,70,0.00,,,0.00,WUHU21623XXSP,2013-03-08 01:53:00,
2013-03-07 19:58:00,28.2,19.9,29.57,ESE,112,0.0,0.0,70,0.00,,,0.00,WUHU21623XXSP,2013-03-08 01:58:00,
2013-03-07 20:03:00,28.2,20.1,29.57,East,90,0.0,0.0,71,0.00,,,0.00,WUHU21623XXSP,2013-03-08 02:03:00,
2013-03-07 20:08:00,28.2,20.1,29.58,ESE,112,0.0,0.0,71,0.00,,,0.00,WUHU21623XXSP,2013-03-08 02:08:00,
2013-03-07 20:13:00,28.2,20.1,29.58,ESE,112,0.0,0.0,71,0.00,,,0.00,WUHU21623XXSP,2013-03-08 02:13:00,
2013-03-07 20:18:00,28.0,19.9,29.58,ESE,112,0.7,0.7,71,0.00,,,0.00,WUHU21623XXSP,2013-03-08 02:18:00,
2013-03-07 20:23:00,28.0,20.2,29.57,SE,135,0.0,1.8,72,0.00,,,0.00,WUHU21623XXSP,2013-03-08 02:23:00,
2013-03-07 20:28:00,28.0,19.9,29.57,SE,135,0.0,1.8,71,0.00,,,0.00,WUHU21623XXSP,2013-03-08 02:28:00,
2013-03-07 20:33:00,28.0,20.2,29.57,ESE,112,0.0,2.5,72,0.00,,,0.00,WUHU21623XXSP,2013-03-08 02:33:00,
2013-03-07 20:38:00,27.7,19.8,29.57,SE,135,0.0,2.5,72,0.00,,,0.00,WUHU21623XXSP,2013-03-08 02:38:00,
2013-03-07 20:43:00,27.7,19.8,29.57,ESE,112,0.0,0.0,72,0.00,,,0.00,WUHU21623XXSP,2013-03-08 02:43:00,
2013-03-07 20:48:00,27.7,19.8,29.56,ESE,112,0.0,0.0,72,0.00,,,0.00,WUHU21623XXSP,2013-03-08 02:48:00,
2013-03-07 20:53:00,27.5,20.0,29.56,ESE,112,2.7,2.7,73,0.00,,,0.00,WUHU21623XXSP,2013-03-08 02:53:00,
2013-03-07 20:58:00,27.5,20.0,29.56,SE,135,7.4,7.4,73,0.00,,,0.00,WUHU21623XXSP,2013-03-08 02:58:00,
2013-03-07 21:03:00,27.3,19.8,29.56,SE,135,0.9,7.4,73,0.00,,,0.00,WUHU21623XXSP,2013-03-08 03:03:00,
2013-03-07 21:08:00,27.3,19.8,29.57,ESE,112,0.0,0.9,73,0.00,,,0.00,WUHU21623XXSP,2013-03-08 03:08:00,
2013-03-07 21:13:00,27.1,19.6,29.57,SE,135,0.0,0.0,73,0.00,,,0.00,WUHU21623XXSP,2013-03-08 03:13:00,
2013-03-07 21:19:00,27.1,19.6,29.57,SE,135,0.0,0.0,73,0.00,,,0.00,WUHU21623XXSP,2013-03-08 03:19:00,
2013-03-07 21:24:00,27.1,19.6,29.58,SSE,157,0.0,0.0,73,0.00,,,0.00,WUHU21623XXSP,2013-03-08 03:24:00,
2013-03-07 21:29:00,27.1,19.6,29.58,SE,135,0.0,0.0,73,0.00,,,0.00,WUHU21623XXSP,2013-03-08 03:29:00,
2013-03-07 21:34:00,27.1,19.6,29.58,ESE,112,0.0,0.0,73,0.00,,,0.00,WUHU21623XXSP,2013-03-08 03:34:00,
2013-03-07 21:39:00,27.1,19.6,29.58,SE,135,0.0,0.0,73,0.00,,,0.00,WUHU21623XXSP,2013-03-08 03:39:00,
2013-03-07 21:44:00,27.1,19.6,29.58,ESE,112,0.0,0.0,73,0.00,,,0.00,WUHU21623XXSP,2013-03-08 03:44:00,
2013-03-07 21:49:00,27.1,19.6,29.58,ESE,112,0.0,1.3,73,0.00,,,0.00,WUHU21623XXSP,2013-03-08 03:49:00,
2013-03-07 21:54:00,27.1,19.9,29.58,SE,135,3.6,3.6,74,0.00,,,0.00,WUHU21623XXSP,2013-03-08 03:54:00,
2013-03-07 21:59:00,27.0,19.7,29.59,SE,135,0.0,3.6,74,0.00,,,0.00,WUHU21623XXSP,2013-03-08 03:59:00,
2013-03-07 22:04:00,27.0,19.7,29.59,SE,135,0.0,0.0,74,0.00,,,0.00,WUHU21623XXSP,2013-03-08 04:04:00,
2013-03-07 22:09:00,26.8,19.5,29.58,SE,135,0.0,0.0,74,0.00,,,0.00,WUHU21623XXSP,2013-03-08 04:09:00,
2013-03-07 22:14:00,26.8,19.5,29.58,SE,135,0.0,0.0,74,0.00,,,0.00,WUHU21623XXSP,2013-03-08 04:14:00,
2013-03-07 22:19:00,26.8,19.5,29.58,SE,135,0.0,0.0,74,0.00,,,0.00,WUHU21623XXSP,2013-03-08 04:19:00,
2013-03-07 22:24:00,26.6,19.4,29.58,ESE,112,0.0,0.0,74,0.00,,,0.00,WUHU21623XXSP,2013-03-08 04:24:00,
2013-03-07 22:29:00,26.4,19.2,29.58,ESE,112,0.0,0.0,74,0.00,,,0.00,WUHU21623XXSP,2013-03-08 04:29:00,
2013-03-07 22:34:00,26.4,19.2,29.58,SE,135,0.0,0.0,74,0.00,,,0.00,WUHU21623XXSP,2013-03-08 04:34:00,
2013-03-07 22:39:00,26.4,19.2,29.58,SE,135,0.0,0.0,74,0.00,,,0.00,WUHU21623XXSP,2013-03-08 04:39:00,
2013-03-07 22:44:00,26.4,19.2,29.59,NE,45,0.0,0.0,74,0.00,,,0.00,WUHU21623XXSP,2013-03-08 04:44:00,
2013-03-07 22:49:00,26.4,19.5,29.59,ESE,112,0.0,0.0,75,0.00,,,0.00,WUHU21623XXSP,2013-03-08 04:49:00,
2013-03-07 22:54:00,26.2,19.3,29.59,ESE,112,0.0,0.0,75,0.00,,,0.00,WUHU21623XXSP,2013-03-08 04:54:00,
2013-03-07 23:57:00,26.4,19.9,29.58,SE,135,3.6,3.6,76,0.00,,,0.00,WUHU21623XXSP,2013-03-08 05:57:00,